Regional Weather Roundup
Issued by NWS Charleston, SC

Current Version | Previous Version | Text Only | Print | Product List | Glossary On
Versions: 1 2 3 4 5 6 7 8 9 10 11 12 13 14 15 16 17 18 19 20 21 22 23 24 25 26 27 28 29 30 31 32 33 34 35 36 37 38 39 40 41 42 43 44 45 46 47 48 49 50
000
ASUS42 KCHS 070827
RWRCHS

REGIONAL WEATHER ROUNDUP
NATIONAL WEATHER SERVICE CHARLESTON SC
400 AM EDT THU MAY 07 2015

NOTE: "FAIR" INDICATES FEW OR NO CLOUDS BELOW 12,000 FEET WITH NO
SIGNIFICANT WEATHER AND/OR OBSTRUCTIONS TO VISIBILITY.

NOT ALL STATIONS ARE QUALITY CONTROLLED BY THE NATIONAL
WEATHER SERVICE. USE DATA WITH CAUTION...ESPECIALLY
DEWPOINT OBSERVATIONS.

SCZ027-030-031-034>040-042>050-070900-
...SOUTHEAST SOUTH CAROLINA...

CITY           SKY/WX    TMP DP  RH WIND       PRES   REMARKS
N CHARLESTON   CLOUDY    65  57  75 N10       30.01F
WATERFRONT PRK NOT AVBL
MOUNT PLEASANT FAIR      64  59  82 MISG      30.00S
PINOPOLIS      NOT AVBL
MONCKS CORNER  FAIR      64  57  77 N7        30.03S
SUMMERVILLE    FAIR      59  59 100 NW3       30.04F
BEAUFORT MCAS  CLOUDY    64  57  78 NW6       30.03F
BEAUFORT ARPT  FAIR      63  59  88 CALM      30.02F
HILTON HEAD IS MOCLDY    64  59  82 N8        30.03F
WALTERBORO     CLOUDY    57  55  94 N5        30.05F
ALLENDALE      FAIR      59  57  94 CALM      30.05F

...SOUTHERN MIDLANDS AND PEE DEE...

CITY           SKY/WX    TMP DP  RH WIND       PRES   REMARKS
GEORGETOWN     NOT AVBL
KINGSTREE      NOT AVBL
ORANGEBURG     CLOUDY    59  55  87 N5        30.07F
BARNWELL       FAIR      55  54  94 CALM      30.08S
AIKEN          FAIR      54  50  87 CALM      30.11F
MANNING        FAIR      59  54  82 N5        30.05S
COLUMBIA       MOCLDY    57  52  83 CALM      30.08F
SUMTER         CLOUDY    60  55  84 NE8       30.06F
FLORENCE       CLOUDY    62  57  83 NE10      30.07F
MYRTLE BEACH   CLOUDY    64  57  77 N12       30.04S
N MYRTLE BEACH LGT RAIN  64  59  83 NE9       30.02F

$$

GAZ063-065-086>088-099>101-113>116-118-119-134>141-150-070900-
...SOUTHEAST GEORGIA...

CITY           SKY/WX    TMP DP  RH WIND       PRES   REMARKS
SAVANNAH ARPT  MOCLDY    61  58  90 N6        30.04F
HUNTER AAF     MOCLDY    62  60  90 CALM      30.01F
FORT STEWART   CLEAR     58  57  94 CALM      30.02F
STATESBORO       N/A     56  56 100 CALM      30.05F
SYLVANIA       PTSUNNY   58  58 100 CALM      30.06F
CLAXTON        FAIR      54  54 100 CALM      30.05F

...CSRA...CENTRAL AND FAR SOUTHEAST GEORGIA...

CITY           SKY/WX    TMP DP  RH WIND       PRES   REMARKS
THOMSON        PTCLDY    54  54 100 CALM      30.12F
AUGUSTA-BUSH   MOCLDY    53  53 100 CALM      30.07F
AUGUSTA-DANIEL MOCLDY    65  53  65 E5        30.08F
SWAINSBORO     FAIR      52  52 100 CALM      30.07S
VIDALIA        CLEAR     59  57  94 CALM      30.06S
EASTMAN        FOG       52  52 100 CALM      30.10S VSB 1
HAZLEHURST     FAIR      59  59 100 CALM      30.05S
ALMA           CLEAR     57  55  93 CALM      30.05S FOG
WAYCROSS       CLEAR     60  60  99 CALM      30.05S
JESUP          FAIR      61  59  94 NW5       30.04S
BAXLEY         FAIR      59  59 100 CALM      30.05S
BRUNSWICK      CLEAR     61  59  94 CALM      30.03S
SAINT SIMONS   CLEAR     62  60  93 N6        30.02F

$$

SCZ027-028-034-036>038-045-046-048>050-GAZ119-141-070900-
...LAKE AND SUPPLEMENTAL COASTAL OBSERVATIONS...

STATION/POSITION TIME  TEMP    WIND        PRES    WAVE   SWELL
                       AIR SEA DIR/SP/G            HT/PER HT/PER/DIR
                 (UTC) (F)     (DEG/KT/KT) (MB)    (FT/S) (FT/S/D)
UPR LAKE MARION  NOT AVBL
WINYAH BAY       0700   66     360/  7     1016.0
LAKE MURRAY      0700   64      CALM  /  2 1018.6F
ACE BASIN NERRS  NOT AVBL
FORT PULASKI     0800          320/  8/  9 1017.2F
SAPELO ISLAND    0800   64     340/  6     1017.0S

$$

ANZ835-935-AMZ111-154-330-350-352-354-370-450-454-472-070900-
...C-MAN AND BUOY OBSERVATIONS...

STATION/POSITION TIME  TEMP    WIND        PRES    WAVE   SWELL
                       AIR SEA DIR/SP/G            HT/PER HT/PER/DIR
                 (UTC) (F)     (DEG/KT/KT) (MB)    (FT/S) (FT/S/D)
BUOY 41004       0750   70 73   10/ 25/ 31 1012.9F  10/ 9   7/ 9
BUOY 41008       0750   69 70  360/ 16/ 17 1016.1    6/ 9   5/100/ 9
FOLLY BEACH CMAN 0800   66     360/ 13/ 16 1015.7F
CAPERS NEARSHORE 0708   69      20/ 17/ 23 1015.9
FRIPP NEARSHORE  0700   69      20/ 14/ 16 1016.2F


STATION/POSITION TIME  TEMP    WIND        PRES    WAVE   SWELL
                       AIR SEA DIR/SP/G            HT/PER HT/PER/DIR
                 (UTC) (F)     (DEG/KT/KT) (MB)    (FT/S) (FT/S/D)
5E ST. MARYS GA  0721      71                N/A     5/ 9   2/120/11
FRYING PAN BUOY  0750   71 72   70/ 23/ 29 1015.1F   9/ 8
BUOY 41025       0750   72 75   70/ 16/ 17 1018.5F   6/ 8   3/140/ 8
CAPE LOOKOUT NC  0800   68      40/ 15/ 18 1017.4F
BUOY 41002       0750   71 72  120/ 19/ 23 1013.7    8/ 7
BUOY 41010       0720   76 77  290/ 21/ 25 1012.6F
ST AUGUSTINE FL  0800   64 73  300/  6/  7 1016.8F


$$


USA.gov is the U.S. government's official web portal to all federal, state and local government web resources and services.